Location: Vienna
(48.2082°N, 16.3738°E)
Time: 22:17:18
(UTC+02:00)

ISS - Pass Details

Date: 17 July 2018
Orbit: 402 x 408 km, 51.6° (Epoch: 20 July)

Event Time Altitude Azimuth Distance (km) Brightness Sun altitude
Exits shadow 01:41:11 23° 282° (WNW) 912 -2.1 -20.0°
Maximum altitude 01:42:56 51° 349° (N) 521 -3.0 -19.9°
Drops below altitude 10° 01:46:10 10° 67° (ENE) 1,472 -0.6 -19.8°
Sets 01:48:18 0° 73° (ENE) 2,334 0.4 -19.7°
